一网星座-0502星 (ONEWEB-0502 )

导读 | 星芒AI

ONEWEB-0502 是 OneWeb 卫星星座计划中的一颗低轨通信卫星,旨在为全球提供高速互联网服务。该卫星于2023年发射,属于OneWeb第二代卫星批次,具备更高容量和更先进通信技术。其部署有助于扩大覆盖范围,提升连接质量,特别是在偏远和农村地区。OneWeb 项目由多家国际企业与政府支持,致力于实现全球无缝宽带接入。

基本信息
目录编号:
54120
目录名称:
ONEWEB-0502
国际标识:
2022-138H
轨道中心:
EARTH
卫星名称:
一网星座-0502星
卫星全名:
一网星座-0502星 (ONEWEB-0502 )
卫星状态:
在轨 (已飞行1150 天)
发射日期:
2022-10-22 UTC
国别 :
英国 (GB)
星等 :
--
轨道信息
数据来源 国际轨道数据 AOE轨道数据
星历时间 2025-12-15T06:00:42+0800
21小时前
查看轨道信息
2025-12-15T07:00:00+0800
20小时前
查看轨道信息
半长轴 7563.907km 7563.903km
偏心率 0.0002087 0.000224
轨道倾角 87.921° 87.920°
近地点辐角 86.026° 88.562°
升交点赤经 341.607° 341.599°
平近点角 274.111° 107.097°
近地点 1184.193km 1184.073km
远地点 1187.351km 1187.463km
周期 109.114分钟 109.114分钟
每日圈数 13.197254 13.197263
详细信息
平衡模式:
三轴稳定
覆盖范围:
全球
运营商:
一网卫星公司
运营商所在国:
英国
制造商(研发单位):
一网卫星公司
制造商所在国:
英国
使用方式:
暂无
卫星简介
OneWeb卫星网络由648颗重约125公斤的微型卫星组成,运行在1200公里的轨道上。 每颗卫星都能够提供至少每秒8千兆位的吞吐量,以使用其高吞吐量的Ku频段有效载荷为家庭和移动平台提供互联网接入。该卫星仍在工作。
2D轨道图
3D轨道图
轨道高度分析图
轨道倾角分析图
轨道综合分析图
查看轨道综合分析图